Simultaneous Nadir Overpasses (SNOs) Predictions

Prediction of SNOs between AQUA and NOAA-19 Satellite Orbit:

Table of predicted SNOs for the next 14.0 days since TLE Epoch: 4/2/2022
Index Date (AQUA) Time (AQUA) Lat,Lon (AQUA) SZA (AQUA ) Date (NOAA-19) Time (NOAA-19) Lat,Lon (NOAA-19) SZA (NOAA-19 ) Distance(km) Time Diff (sec)
1 04/04/2022 02:25:10 -77.84, -53.92 107.23 04/04/2022 02:24:47 -77.84, -53.87 107.23 1.24 23
2 04/04/2022 03:14:38 77.88, 113.53 72.82 04/04/2022 03:15:41 77.86, 113.55 72.78 2.28 63
3 04/06/2022 07:58:43 77.82, 42.80 71.89 04/06/2022 07:57:42 77.82, 42.88 71.91 1.80 61
4 04/06/2022 08:48:10 -77.87,-149.80 108.06 04/06/2022 08:48:47 -77.84,-149.75 108.10 3.29 37
5 04/08/2022 14:21:42 77.84, -53.01 71.05 04/08/2022 14:21:42 77.81, -53.09 71.04 3.36 0
6 04/10/2022 19:55:13 -77.82, 43.67 109.80 04/10/2022 19:54:48 -77.80, 43.66 109.82 2.74 25
7 04/10/2022 20:44:40 77.83,-148.74 70.20 04/10/2022 20:45:41 77.84,-148.86 70.20 2.80 61
8 04/13/2022 01:28:44 77.80, 140.39 69.35 04/13/2022 01:27:42 77.78, 140.42 69.35 2.46 62
9 04/13/2022 02:18:11 -77.85, -52.16 110.61 04/13/2022 02:18:47 -77.83, -52.11 110.64 2.57 36
10 04/15/2022 07:51:40 77.81, 44.63 68.53 04/15/2022 07:51:40 77.80, 44.60 68.53 1.34 0



Historial Predications of SNOs between AQUA and NOAA-19
